User: anonymous   Login
Location: Unspecified
(0.0000°N, 0.0000°E)
Time: 11:42:10
(UTC+00:00)
Language:

Mayak - Orbit

View from above orbital plane
View from above orbital plane
View from above satellite
View from above satellite

Ground track
Ground track

The orbit data is extracted from the following two-line orbital elements,

1 42830U 17042F   17235.20709562  .00000902  00000-0  97167-4 0  9995
2 42830  97.6109 143.4834 0016140 105.2442 255.0562 14.90703435  5936
Epoch (UTC): 23 August 2017 04:58:13
Eccentricity: 0.0016140
inclination: 97.6109°
perigee height: 584 km
apogee height: 607 km
right ascension of ascending node: 143.4834°
argument of perigee: 105.2442°
revolutions per day: 14.90703435
mean anomaly at epoch: 255.0562°
orbit number at epoch: 593

The dashed part of the orbit path shows where the satellite is in the earth's shadow,  

DLR